Wind_Speed
19 20 22 23 24 26 27 28 28 28 28 27 26 26 26 25 24 23 22 21 19 18 18 17 16 18 19 18 18 17 17 17 16 15 15 14 14 14 13 11 10 10 9
17 19 19 21 23 24 26 27 27 27 27 27 26 27 27 26 25 25 24 23 21 20 19 18 18 18 19 20 18 18 18 18 17 16 16 16 15 15 14 12 11 11 10
15 16 18 19 20 22 24 25 26 27 26 25 26 27 27 27 26 26 26 25 23 22 21 19 19 19 20 20 20 19 19 19 18 17 17 17 16 16 15 14 13 12 11
13 13 15 16 17 19 21 23 24 25 26 25 26 27 28 28 28 26 26 26 25 23 22 21 20 20 21 21 21 20 20 20 19 18 17 17 17 17 16 15 14 13 12
11 11 12 13 14 16 18 20 21 23 25 25 25 26 27 28 29 28 27 27 27 25 24 22 21 22 22 22 21 21 21 21 20 19 18 18 18 18 17 16 15 14 13
11 9 9 9 10 12 15 17 19 21 23 25 25 26 26 27 28 28 27 27 28 27 26 23 23 24 23 23 22 22 22 22 21 20 19 19 19 18 18 17 16 15 13
10 8 7 7 7 9 12 14 16 19 21 23 25 26 26 27 27 28 28 28 28 29 28 26 24 25 24 24 23 23 23 23 22 21 20 20 20 19 18 18 17 16 15
10 8 7 7 6 7 8 11 14 16 18 21 23 25 26 27 27 27 28 28 28 29 29 28 27 26 26 25 24 24 25 24 23 22 22 22 21 20 19 19 18 16 15
11 9 8 6 6 6 6 8 11 13 16 18 21 23 25 26 27 28 29 29 29 29 29 29 29 28 27 26 26 26 26 25 25 23 23 23 23 22 21 20 19 18 16
12 11 8 7 5 4 5 7 9 11 13 15 18 20 23 26 27 28 28 29 30 29 30 29 30 30 29 28 27 27 27 27 26 25 24 24 23 23 23 22 21 19 18
13 11 9 7 6 4 4 5 7 9 12 14 16 18 21 24 27 28 29 30 31 31 31 31 31 31 31 31 30 29 29 28 27 27 26 26 25 24 24 23 22 21 20
13 12 10 8 7 5 4 5 6 8 11 13 14 17 19 22 25 27 29 29 30 32 33 32 32 33 33 34 33 32 31 31 30 29 29 27 27 26 25 25 24 23 22
13 13 11 10 8 7 5 5 6 7 10 12 13 15 18 20 23 25 27 27 29 31 33 34 34 34 35 35 35 35 35 33 32 31 31 30 29 28 28 26 25 25 24
14 13 12 11 9 8 7 5 5 6 8 11 13 15 17 19 22 24 26 27 28 30 32 33 35 37 37 37 37 37 37 36 35 34 33 33 32 31 30 29 28 27 26
14 13 12 12 10 9 8 7 6 6 7 9 11 13 15 18 21 23 25 27 28 30 31 33 34 37 38 38 39 40 39 38 38 37 37 36 35 34 33 32 31 30 29
14 13 13 12 11 10 9 8 7 7 7 8 10 13 15 17 19 21 24 26 28 29 31 33 35 36 37 39 39 40 40 40 40 40 39 39 38 37 36 36 34 34 33
14 14 13 12 12 11 10 9 8 8 8 9 9 11 14 16 17 19 21 24 26 28 30 32 34 35 37 38 39 40 41 42 42 41 41 41 40 40 39 38 37 37 36
14 14 14 13 12 12 11 10 9 9 9 10 10 11 12 14 16 17 19 22 24 26 27 30 32 34 36 37 39 40 41 42 42 42 42 42 43 42 42 41 40 39 38
15 15 14 14 13 12 12 11 10 9 9 9 10 10 10 12 13 15 17 19 21 23 25 28 30 32 34 35 37 39 40 41 42 42 42 42 43 44 44 42 42 42 41
16 15 15 14 13 13 12 12 11 11 10 10 9 9 9 10 11 13 15 16 18 19 21 24 27 30 32 33 34 36 38 40 41 42 43 43 43 44 44 44 44 43 43
15 15 15 15 14 14 13 12 12 11 11 10 9 8 8 8 9 11 13 14 15 16 18 20 22 25 29 31 32 33 35 36 38 39 40 42 43 44 44 44 44 44 44
15 15 15 15 15 14 14 13 12 12 11 10 10 9 8 8 9 10 11 13 14 16 17 18 20 22 25 28 30 31 33 34 35 37 39 40 42 43 45 45 45 45 45
16 15 16 16 15 14 14 14 13 12 11 11 10 10 8 9 10 10 11 13 15 16 17 18 20 21 23 26 29 31 32 33 34 36 37 38 40 41 43 45 45 46 46
16 16 16 16 16 15 15 14 14 13 12 11 11 10 10 9 9 10 11 12 14 15 17 17 18 20 22 24 26 29 31 33 35 37 38 38 39 40 41 43 45 46 46
17 17 17 17 16 16 15 15 15 14 14 13 12 12 11 11 11 11 12 12 14 15 17 17 18 18 20 22 25 27 29 31 32 34 37 38 39 40 41 42 44 45 46
18 18 18 17 17 16 16 16 16 15 15 14 14 13 13 12 12 13 13 13 14 15 17 17 18 19 19 21 23 25 27 29 31 33 36 38 39 40 40 41 43 44 46
Wind_Direction
276 270 263 259 256 253 252 249 246 243 240 236 236 230 224 222 221 220 219 218 217 218 219 218 215 211 207 205 207 208 206 205 204 205 205 204 202 200 200 198 195 194 195
282 274 269 263 257 253 250 247 244 242 238 232 232 229 225 224 222 220 219 219 219 219 219 219 215 213 210 205 206 206 205 205 206 208 208 206 204 203 203 202 201 200 200
291 281 273 267 259 254 250 246 242 239 236 233 230 228 225 223 221 221 220 219 219 220 219 219 217 214 211 207 206 207 207 207 207 208 209 208 207 206 205 206 206 206 204
301 289 279 271 262 255 249 245 240 237 233 232 231 229 225 223 221 221 221 219 220 220 218 219 220 216 213 211 207 208 208 208 208 208 208 209 210 209 208 208 210 211 210
317 301 286 276 266 257 250 244 239 235 233 232 230 229 226 223 221 220 220 221 221 220 219 219 222 217 213 212 211 210 210 210 210 209 210 211 212 211 210 211 213 214 216
329 317 300 281 270 259 249 243 238 234 233 231 229 228 225 222 222 221 221 221 221 221 220 220 221 217 215 214 213 214 212 210 211 212 213 211 211 213 213 214 216 216 218
340 330 321 300 277 261 249 242 237 232 231 229 228 227 225 224 223 223 221 221 220 220 220 220 221 219 217 216 214 215 215 213 213 213 213 212 213 215 216 217 218 217 219
348 339 330 318 295 272 252 240 235 231 229 228 227 225 225 225 224 224 222 221 221 220 221 221 221 222 221 218 216 216 217 215 214 214 215 214 215 216 217 217 218 220 221
358 351 341 330 312 280 258 242 237 232 229 227 226 224 225 225 226 226 225 224 223 223 223 224 223 222 223 220 220 220 219 218 216 216 217 218 217 217 218 219 221 224 225
2 0 353 344 333 305 270 251 244 234 230 229 226 226 226 226 227 228 226 225 224 225 225 225 224 224 225 224 223 222 222 221 219 219 220 220 220 219 220 222 225 227 230
6 5 3 356 345 326 294 261 251 239 231 230 230 229 228 227 228 228 228 227 227 227 227 226 226 225 225 225 224 224 224 223 223 223 222 223 223 222 222 225 228 231 233
6 6 5 1 352 337 309 281 268 251 239 236 235 233 230 229 228 230 231 231 230 229 229 227 227 227 227 226 225 226 225 224 225 226 225 225 226 225 225 228 230 233 235
6 6 4 1 356 346 325 297 277 263 251 244 241 238 235 233 230 231 232 233 233 231 230 229 229 228 229 229 227 227 228 227 228 228 228 228 228 228 229 231 233 235 236
6 6 5 2 357 351 340 318 294 277 262 254 250 244 239 235 234 233 234 235 236 235 232 230 231 230 230 231 230 230 230 230 230 230 231 231 232 231 232 234 236 237 238
6 5 3 0 357 352 345 336 321 298 278 266 257 250 244 238 236 236 236 237 239 239 236 234 232 232 232 232 231 231 231 231 232 233 233 234 235 235 235 236 237 239 241
4 3 2 359 355 351 345 338 327 314 297 282 267 257 251 246 243 240 239 239 240 241 239 237 235 234 234 233 233 232 232 233 233 234 235 235 236 237 238 238 239 241 242
0 360 358 356 354 350 344 336 327 318 306 294 279 266 257 251 248 245 244 241 242 242 240 240 240 238 236 236 236 235 235 235 235 236 237 237 238 239 240 240 242 243 243
356 356 354 353 352 349 345 340 332 321 311 300 288 276 265 255 252 248 246 245 244 243 243 242 242 241 240 239 238 237 238 238 238 239 239 239 239 241 241 242 243 244 245
353 353 352 350 349 346 343 340 335 328 320 310 296 284 272 261 255 252 248 247 247 246 246 245 243 242 241 240 239 238 238 238 240 240 240 240 240 240 241 243 244 245 245
351 350 350 349 348 346 343 338 334 331 325 318 307 293 279 267 259 255 252 250 249 248 248 247 246 244 243 241 239 238 239 239 239 240 241 242 241 241 241 243 245 245 246
347 348 348 347 345 343 342 339 336 333 329 325 315 298 287 276 265 259 254 252 251 250 250 248 246 243 242 240 240 239 240 240 240 241 242 242 243 243 243 244 245 247 247
343 343 343 342 340 340 339 337 334 331 329 326 321 308 290 281 275 268 262 258 257 256 253 251 249 246 243 242 242 243 242 242 242 242 243 243 244 245 246 246 246 246 246
340 339 339 339 337 336 336 334 330 329 327 325 323 316 304 287 278 274 269 265 262 260 259 256 254 251 248 247 246 246 245 245 244 243 244 245 246 247 248 248 247 247 247
337 336 335 335 334 333 332 331 328 324 323 322 320 316 307 297 288 283 277 273 270 266 263 261 258 254 253 252 252 250 248 247 247 247 246 247 248 248 249 249 248 248 248
332 333 332 332 330 329 327 327 325 320 318 316 313 310 306 300 293 290 287 282 276 271 269 264 262 259 256 254 253 252 250 249 249 248 248 249 250 251 252 251 251 250 250
327 328 329 328 328 326 324 323 322 319 314 312 309 306 303 298 294 290 287 286 282 277 274 269 266 265 262 258 255 254 253 252 251 251 252 252 252 253 254 254 253 253 252
Height
5805 5804 5804 5805 5806 5807 5809 5811 5813 5816 5819 5822 5826 5829 5832 5836 5839 5842 5845 5848 5851 5853 5855 5857 5858 5861 5863 5866 5868 5871 5873 5876 5878 5880 5882 5884 5886 5888 5889 5891 5892 5894 5895
5800 5799 5799 5799 5800 5801 5803 5805 5808 5810 5813 5817 5820 5824 5827 5831 5834 5838 5841 5844 5847 5849 5852 5854 5856 5858 5861 5864 5866 5869 5871 5874 5876 5878 5881 5883 5885 5887 5889 5890 5892 5893 5895
5796 5794 5794 5794 5794 5795 5797 5799 5802 5805 5808 5811 5815 5818 5822 5826 5830 5833 5837 5840 5843 5846 5848 5851 5853 5856 5858 5861 5864 5866 5869 5871 5874 5876 5879 5881 5883 5885 5887 5889 5891 5893 5894
5792 5790 5789 5789 5789 5790 5791 5793 5796 5799 5802 5806 5809 5813 5817 5821 5825 5828 5832 5835 5839 5842 5845 5848 5850 5853 5855 5858 5861 5863 5866 5869 5872 5874 5877 5879 5882 5884 5886 5888 5890 5891 5893
5789 5787 5786 5785 5785 5786 5787 5789 5791 5794 5797 5801 5804 5808 5812 5816 5820 5823 5827 5831 5835 5838 5841 5844 5847 5849 5852 5855 5858 5861 5864 5867 5869 5872 5875 5877 5879 5882 5884 5886 5888 5890 5892
5787 5785 5783 5782 5782 5782 5783 5785 5787 5789 5792 5796 5799 5803 5807 5811 5815 5819 5822 5826 5830 5834 5837 5840 5843 5846 5849 5852 5855 5858 5861 5864 5867 5869 5872 5875 5877 5880 5882 5884 5886 5888 5890
5785 5783 5781 5780 5780 5780 5780 5782 5783 5785 5788 5791 5795 5799 5802 5806 5810 5814 5818 5822 5825 5829 5833 5836 5839 5843 5846 5849 5852 5855 5858 5861 5863 5866 5869 5872 5875 5877 5880 5882 5884 5886 5888
5784 5782 5780 5779 5778 5778 5778 5779 5780 5782 5784 5787 5790 5794 5798 5802 5805 5809 5813 5817 5820 5824 5828 5832 5835 5839 5842 5845 5848 5851 5854 5857 5860 5863 5866 5869 5872 5874 5877 5879 5882 5884 5886
5784 5781 5779 5777 5776 5776 5776 5777 5778 5779 5781 5783 5786 5790 5793 5797 5801 5805 5808 5812 5816 5820 5823 5827 5831 5834 5838 5841 5844 5847 5850 5854 5857 5860 5863 5865 5868 5871 5874 5876 5879 5881 5883
5784 5781 5779 5777 5775 5775 5774 5775 5776 5777 5778 5780 5782 5785 5789 5792 5796 5800 5803 5807 5811 5814 5818 5822 5826 5829 5833 5836 5840 5843 5846 5849 5853 5856 5859 5862 5865 5867 5870 5873 5875 5878 5880
5784 5781 5778 5777 5775 5774 5773 5773 5774 5775 5776 5777 5779 5782 5785 5788 5791 5794 5798 5802 5805 5809 5813 5816 5820 5824 5827 5831 5835 5838 5841 5845 5848 5851 5854 5857 5860 5863 5866 5869 5872 5874 5876
5784 5781 5778 5776 5775 5773 5773 5772 5772 5773 5774 5775 5776 5778 5781 5783 5786 5789 5792 5796 5799 5803 5806 5810 5814 5818 5821 5825 5828 5832 5836 5840 5843 5846 5849 5852 5856 5859 5862 5865 5867 5870 5872
5784 5781 5778 5776 5774 5773 5771 5771 5771 5771 5771 5772 5773 5775 5777 5779 5781 5784 5787 5790 5793 5797 5800 5804 5808 5811 5815 5818 5822 5826 5829 5833 5837 5841 5844 5847 5850 5854 5857 5860 5862 5865 5867
5784 5781 5778 5776 5774 5772 5771 5770 5769 5769 5769 5769 5770 5771 5772 5774 5777 5779 5782 5784 5787 5790 5793 5797 5800 5804 5807 5811 5815 5818 5823 5827 5830 5834 5838 5841 5845 5848 5851 5854 5857 5859 5862
5784 5781 5778 5776 5774 5772 5770 5769 5767 5767 5766 5766 5767 5767 5768 5770 5772 5774 5776 5779 5781 5784 5786 5790 5793 5796 5800 5803 5807 5811 5815 5819 5823 5827 5831 5835 5838 5841 5844 5847 5850 5853 5856
5784 5781 5778 5776 5773 5771 5769 5767 5766 5765 5764 5763 5763 5763 5764 5765 5767 5768 5770 5772 5775 5777 5779 5781 5784 5788 5791 5795 5798 5803 5807 5811 5815 5819 5823 5827 5830 5834 5837 5840 5843 5846 5849
5784 5781 5778 5775 5773 5770 5768 5766 5764 5763 5762 5760 5760 5759 5759 5760 5762 5763 5765 5766 5768 5770 5772 5774 5776 5779 5783 5787 5790 5794 5798 5802 5806 5810 5814 5818 5822 5826 5829 5833 5836 5839 5841
5783 5780 5777 5774 5772 5769 5767 5764 5763 5761 5759 5757 5756 5755 5755 5755 5756 5757 5759 5760 5761 5763 5764 5766 5768 5771 5775 5778 5782 5785 5789 5793 5797 5801 5805 5809 5813 5817 5820 5824 5827 5830 5833
5782 5779 5776 5774 5771 5768 5765 5763 5761 5758 5756 5754 5752 5751 5751 5751 5752 5752 5753 5754 5755 5757 5758 5759 5761 5763 5766 5769 5773 5776 5780 5784 5788 5792 5796 5800 5804 5807 5811 5814 5817 5821 5824
5781 5778 5775 5772 5769 5767 5764 5761 5759 5756 5754 5752 5749 5748 5747 5747 5747 5748 5749 5749 5750 5751 5752 5753 5754 5756 5759 5761 5765 5768 5772 5775 5779 5782 5786 5790 5793 5797 5801 5804 5808 5810 5813
5780 5777 5774 5771 5768 5765 5762 5760 5757 5754 5752 5750 5747 5746 5744 5744 5744 5745 5745 5745 5746 5746 5747 5747 5748 5749 5752 5754 5757 5760 5763 5766 5770 5773 5777 5780 5784 5787 5790 5793 5797 5800 5803
5779 5776 5773 5770 5767 5764 5761 5758 5755 5753 5750 5748 5746 5744 5743 5742 5742 5742 5742 5742 5742 5742 5742 5742 5743 5744 5745 5748 5750 5752 5755 5758 5762 5765 5767 5771 5774 5777 5780 5783 5786 5789 5792
5777 5774 5771 5768 5765 5762 5759 5756 5754 5751 5749 5746 5744 5742 5741 5740 5739 5739 5739 5738 5738 5738 5738 5738 5738 5739 5740 5741 5743 5745 5747 5750 5753 5755 5758 5761 5764 5766 5769 5772 5775 5777 5780
5775 5772 5769 5766 5763 5760 5758 5755 5752 5749 5747 5745 5742 5740 5739 5738 5737 5736 5735 5735 5734 5734 5733 5733 5733 5734 5734 5735 5736 5738 5739 5742 5744 5746 5749 5752 5754 5756 5758 5760 5763 5765 5768
5773 5770 5767 5764 5761 5758 5755 5752 5749 5747 5744 5742 5740 5738 5737 5736 5734 5733 5732 5731 5730 5730 5729 5729 5728 5728 5728 5729 5729 5730 5732 5734 5736 5737 5739 5742 5744 5745 5747 5749 5751 5753 5755
5770 5767 5764 5761 5758 5755 5753 5750 5747 5744 5742 5740 5738 5736 5734 5733 5731 5730 5729 5727 5726 5726 5725 5724 5724 5723 5723 5723 5723 5724 5725 5726 5727 5729 5730 5732 5733 5734 5736 5738 5739 5741 5743